GW3393 Weather Reports


time (UTC)temp
C
wind
direction
speed
KPH
gust
KPH
rain 1hr
cm
rain 24hr
cm
rain mn
cm
humidity
%
barometer
mb
20260503184755 13 329 14.5 19.3 0.00 0.00 0.00 41 1018.6
20260503184252 12 312 11.3 19.3 0.00 0.00 0.00 39 1018.8
20260503183748 13 286 9.7 24.1 0.00 0.00 0.00 38 1018.8
20260503183246 13 297 11.3 24.1 0.00 0.00 0.00 38 1018.9
20260503182743 13 252 9.7 9.7 0.00 0.00 0.00 38 1019.0
20260503182242 12 277 9.7 25.7 0.00 0.00 0.00 40 1018.9
20260503181739 13 212 9.7 20.9 0.00 0.00 0.00 36 1019.1
20260503181236 12 315 9.7 20.9 0.00 0.00 0.00 38 1019.0
20260503180732 13 23 8.0 11.3 0.00 0.00 0.00 40 1018.8
20260503180231 12 221 14.5 20.9 0.00 0.00 0.00 39 1019.0
20260503175727 12 183 9.7 25.7 0.00 0.00 0.00 40 1019.1
20260503175225 12 209 6.4 25.7 0.00 0.00 0.00 38 1019.3
20260503174720 12 261 20.9 25.7 0.00 0.00 0.00 39 1019.3
20260503174218 12 265 9.7 35.4 0.00 0.00 0.00 38 1019.4
20260503173714 12 170 3.2 19.3 0.00 0.00 0.00 41 1019.4
20260503173210 12 247 19.3 32.2 0.00 0.00 0.00 40 1019.7
20260503172707 12 222 9.7 16.1 0.00 0.00 0.00 41 1019.5
20260503172204 12 264 9.7 33.8 0.00 0.00 0.00 38 1019.6
20260503171700 12 246 22.5 22.5 0.00 0.00 0.00 41 1019.5
20260503171158 11 218 8.0 30.6 0.00 0.00 0.00 40 1019.6
20260503170654 12 253 17.7 19.3 0.00 0.00 0.00 42 1019.6
20260503170151 11 221 19.3 35.4 0.00 0.00 0.00 40 1019.8
20260503160113 10 297 19.3 30.6 0.00 0.00 0.00 45 1020.5
20260503150542 8 254 6.4 25.7 0.00 0.00 0.00 48 1020.6
20260503130932 6 257 0.0 19.3 0.00 0.00 0.00 74 1020.8
20260503130430 5 270 8.0 9.7 0.00 0.00 0.00 76 1021.0
20260503110823 1 252 4.8 8.0 0.00 0.00 0.00 92 1020.0
20260503110319 1 210 6.4 8.0 0.00 0.00 0.00 92 1020.0
20260503100246 1 234 8.0 9.7 0.00 0.00 0.00 92 1019.1
20260503090205 1 219 3.2 8.0 0.00 0.00 0.00 91 1018.9
20260503081138 1 210 0.0 4.8 0.00 0.00 0.00 89 1018.9
20260503080634 1 212 4.8 8.0 0.00 0.00 0.00 88 1018.9
20260503080131 1 279 4.8 8.0 0.00 0.00 0.00 88 1018.9
20260503072608 2 254 4.8 9.7 0.00 0.00 0.00 86 1018.6
20260503072105 2 259 3.2 6.4 0.00 0.00 0.00 86 1018.5
20260503071602 2 255 8.0 11.3 0.00 0.00 0.00 86 1018.4
20260503071059 2 273 4.8 8.0 0.00 0.00 0.00 85 1018.4
20260503070555 2 246 6.4 11.3 0.00 0.00 0.00 85 1018.5
20260503055014 3 311 1.6 9.7 0.00 0.00 0.00 82 1018.6
20260503054510 3 233 4.8 9.7 0.00 0.00 0.00 82 1018.6
20260503054008 3 263 8.0 11.3 0.00 0.00 0.00 82 1018.6
20260503053506 3 236 8.0 8.0 0.00 0.00 0.00 82 1018.6
20260503053002 3 233 6.4 9.7 0.00 0.00 0.00 82 1018.6
20260503052459 3 246 6.4 6.4 0.00 0.00 0.00 82 1018.3
20260503051955 3 226 4.8 8.0 0.00 0.00 0.00 82 1018.6
20260503051451 3 260 4.8 6.4 0.00 0.00 0.00 82 1018.5
20260503050949 3 240 6.4 6.4 0.00 0.00 0.00 82 1018.6
20260503050445 3 285 4.8 6.4 0.00 0.00 0.00 82 1018.6
20260503045943 3 297 4.8 9.7 0.00 0.00 0.00 81 1018.7
20260503045440 3 262 8.0 8.0 0.00 0.00 0.00 81 1018.7
20260503044936 3 266 6.4 8.0 0.00 0.00 0.00 81 1018.5
20260503044433 3 203 0.0 8.0 0.00 0.00 0.00 81 1018.7
20260503043931 3 249 1.6 4.8 0.00 0.00 0.00 81 1018.6
20260503043427 3 255 0.0 6.4 0.00 0.00 0.00 80 1018.9
20260503042924 3 285 0.0 6.4 0.00 0.00 0.00 80 1018.6
20260503042420 3 270 1.6 4.8 0.00 0.00 0.00 80 1018.6
20260503041917 4 299 3.2 6.4 0.00 0.00 0.00 79 1018.7
20260503041414 4 8 3.2 4.8 0.00 0.00 0.00 79 1018.7
20260503040911 4 14 0.0 4.8 0.00 0.00 0.00 79 1018.6
20260503040409 4 241 3.2 4.8 0.00 0.00 0.00 79 1018.5
20260503035906 4 5 0.0 3.2 0.00 0.00 0.00 79 1018.7
20260503035402 4 262 1.6 3.2 0.00 0.00 0.00 78 1018.6
20260503034859 4 323 3.2 6.4 0.00 0.00 0.00 79 1018.7
20260503034357 4 6 1.6 1.6 0.00 0.00 0.00 79 1018.7
20260503033854 4 351 3.2 6.4 0.00 0.00 0.00 78 1018.8
20260503033352 4 241 3.2 4.8 0.00 0.00 0.00 78 1018.7
20260503032849 4 273 4.8 6.4 0.00 0.00 0.00 78 1018.7
20260503032348 4 114 0.0 3.2 0.00 0.00 0.00 78 1018.8
20260503031845 4 17 4.8 4.8 0.00 0.00 0.00 78 1018.6
20260503031343 4 49 0.0 3.2 0.00 0.00 0.00 79 1018.7
20260503030839 4 246 0.0 3.2 0.00 0.00 0.00 78 1018.9
20260503030335 4 180 0.0 3.2 0.00 0.00 0.00 78 1018.8
20260503025832 4 254 0.0 3.2 0.00 0.00 0.00 77 1018.6
20260503025330 4 255 1.6 6.4 0.00 0.00 0.00 76 1018.7
20260503024826 4 19 3.2 4.8 0.00 0.00 0.00 76 1018.7
20260503024323 4 0 4.8 6.4 0.00 0.00 0.00 76 1018.8
20260503023820 4 37 9.7 12.9 0.00 0.00 0.00 76 1018.6
20260503023317 4 45 4.8 6.4 0.00 0.00 0.00 76 1018.8
20260503022814 4 27 4.8 6.4 0.00 0.00 0.00 76 1018.7
20260503022314 4 36 3.2 4.8 0.00 0.00 0.00 76 1018.7
20260503021811 4 33 3.2 4.8 0.00 0.00 0.00 75 1018.7
20260503021307 4 70 3.2 4.8 0.00 0.00 0.00 75 1018.9
20260503020805 4 29 6.4 6.4 0.00 0.00 0.00 75 1018.6
20260503020302 5 90 4.8 6.4 0.00 0.00 0.00 75 1019.0
20260503015758 5 54 6.4 6.4 0.00 0.00 0.00 74 1018.9
20260503015255 5 61 3.2 4.8 0.00 0.00 0.00 74 1018.7
20260503014751 5 12 6.4 8.0 0.00 0.00 0.00 74 1018.9
20260503014249 5 41 9.7 17.7 0.00 0.00 0.00 74 1018.6
20260503013746 5 356 0.0 14.5 0.00 0.00 0.00 74 1018.9
20260503013244 5 53 3.2 9.7 0.00 0.00 0.00 74 1018.4
20260503012741 5 43 6.4 6.4 0.00 0.00 0.00 74 1018.6
20260503012238 5 8 0.0 6.4 0.00 0.00 0.00 74 1018.5
20260503011734 5 81 3.2 4.8 0.00 0.00 0.00 74 1018.5
20260503011232 5 4 3.2 8.0 0.00 0.00 0.00 74 1018.7
20260503010727 5 15 0.0 4.8 0.00 0.00 0.00 73 1018.5
20260503010225 5 83 4.8 11.3 0.00 0.00 0.00 73 1018.4
20260503005722 5 65 6.4 16.1 0.00 0.00 0.00 74 1018.5
20260503005219 5 9 9.7 16.1 0.00 0.00 0.00 74 1018.4
20260503004715 5 110 3.2 6.4 0.00 0.00 0.00 75 1018.3
20260503004214 5 30 3.2 4.8 0.00 0.00 0.00 75 1018.3
20260503003711 5 74 4.8 4.8 0.00 0.00 0.00 75 1018.1
20260503003208 5 90 3.2 3.2 0.00 0.00 0.00 74 1018.0
20260503002704 5 80 8.0 8.0 0.00 0.00 0.00 74 1017.9
20260503002201 5 52 4.8 9.7 0.00 0.00 0.00 74 1017.9
20260503001657 5 35 9.7 12.9 0.00 0.00 0.00 74 1018.0
20260503001154 5 94 4.8 8.0 0.00 0.00 0.00 73 1018.0
20260503000652 5 57 8.0 9.7 0.00 0.00 0.00 73 1017.9
20260503000149 6 30 3.2 12.9 0.00 0.00 0.00 72 1017.6
20260502235645 6 79 6.4 8.0 0.00 0.00 0.00 71 1017.7
20260502235144 6 18 8.0 19.3 0.00 0.00 0.00 70 1017.5
20260502234639 6 23 4.8 8.0 0.00 0.00 0.00 70 1017.6
20260502234137 6 27 8.0 12.9 0.00 0.00 0.00 70 1017.6
20260502233632 6 62 8.0 20.9 0.00 0.00 0.00 69 1017.5
20260502233129 6 0 3.2 14.5 0.00 0.00 0.00 69 1017.5
20260502232625 6 307 3.2 14.5 0.00 0.00 0.00 69 1017.2
20260502232123 6 3 3.2 14.5 0.00 0.00 0.00 68 1017.4
20260502231619 7 337 4.8 14.5 0.00 0.00 0.00 68 1017.3
20260502231118 7 30 9.7 16.1 0.00 0.00 0.00 68 1017.2
20260502230615 7 24 6.4 12.9 0.00 0.00 0.00 68 1017.1
20260502230114 7 26 11.3 22.5 0.00 0.00 0.00 67 1017.0
20260502225609 7 331 6.4 11.3 0.00 0.00 0.00 66 1016.9
20260502225106 7 19 8.0 17.7 0.00 0.00 0.00 65 1017.0
20260502224602 7 60 4.8 24.1 0.00 0.00 0.00 64 1016.8
20260502224059 7 11 9.7 19.3 0.00 0.00 0.00 62 1016.8
20260502223557 8 288 9.7 11.3 0.00 0.00 0.00 60 1016.8
20260502223055 8 311 24.1 30.6 0.00 0.00 0.00 60 1016.7
20260502222552 8 0 1.6 4.8 0.00 0.00 0.00 61 1016.6
20260502222048 8 95 4.8 17.7 0.00 0.00 0.00 63 1016.8
20260502221544 8 19 4.8 11.3 0.00 0.00 0.00 62 1016.5
20260502221042 8 14 19.3 24.1 0.00 0.00 0.00 60 1016.7
20260502220537 8 59 8.0 17.7 0.00 0.00 0.00 55 1016.6
20260502220034 8 27 14.5 16.1 0.00 0.00 0.00 53 1016.5
20260502215531 8 342 3.2 20.9 0.00 0.00 0.00 52 1016.5
20260502215028 8 275 6.4 16.1 0.00 0.00 0.00 52 1016.4
20260502214525 9 239 3.2 14.5 0.00 0.00 0.00 51 1016.3
20260502214023 8 301 9.7 17.7 0.00 0.00 0.00 51 1016.4
20260502213519 9 290 8.0 14.5 0.00 0.00 0.00 51 1016.3
20260502213018 8 312 11.3 16.1 0.00 0.00 0.00 50 1016.3
20260502212516 8 306 6.4 19.3 0.00 0.00 0.00 53 1016.2
20260502212013 8 314 8.0 14.5 0.00 0.00 0.00 51 1016.2
20260502211509 8 309 16.1 32.2 0.00 0.00 0.00 51 1016.2
20260502211006 9 293 12.9 20.9 0.00 0.00 0.00 48 1016.1
20260502210503 10 246 3.2 11.3 0.00 0.00 0.00 49 1016.1
20260502210000 9 355 6.4 17.7 0.00 0.00 0.00 49 1016.1
20260502205456 9 299 19.3 24.1 0.00 0.00 0.00 49 1016.1
20260502204953 9 318 9.7 17.7 0.00 0.00 0.00 50 1016.1
20260502204450 10 292 6.4 14.5 0.00 0.00 0.00 50 1016.1
20260502203948 9 315 6.4 11.3 0.00 0.00 0.00 50 1016.2
20260502203445 9 307 4.8 14.5 0.00 0.00 0.00 49 1016.1
20260502202941 9 290 9.7 20.9 0.00 0.00 0.00 50 1016.1
20260502202438 8 328 1.6 22.5 0.00 0.00 0.00 51 1016.1
20260502201936 9 326 14.5 25.7 0.00 0.00 0.00 49 1016.2
20260502201432 9 39 11.3 19.3 0.00 0.00 0.00 50 1016.2
20260502200929 9 294 6.4 22.5 0.00 0.00 0.00 48 1016.3
20260502200424 9 295 11.3 24.1 0.00 0.00 0.00 50 1016.1
20260502195923 10 343 12.9 17.7 0.00 0.00 0.00 49 1016.2
20260502195419 10 162 3.2 14.5 0.00 0.00 0.00 51 1016.1
20260502194916 9 338 11.3 22.5 0.00 0.00 0.00 50 1016.2
20260502194413 9 322 9.7 19.3 0.00 0.00 0.00 49 1016.3
20260502193909 9 308 12.9 19.3 0.00 0.00 0.00 49 1016.5
20260502193406 9 19 0.0 19.3 0.00 0.00 0.00 49 1016.4
20260502192901 9 345 9.7 20.9 0.00 0.00 0.00 48 1016.3
20260502192359 9 320 20.9 25.7 0.00 0.00 0.00 49 1016.5
20260502191855 10 299 11.3 17.7 0.00 0.00 0.00 49 1016.5
20260502191354 9 352 3.2 17.7 0.00 0.00 0.00 48 1016.7
20260502190851 9 52 6.4 14.5 0.00 0.00 0.00 50 1016.9
20260502190348 9 284 11.3 11.3 0.00 0.00 0.00 47 1016.8
20260502185844 10 258 4.8 6.4 0.00 0.00 0.00 49 1016.8
20260502185339 9 294 3.2 20.9 0.00 0.00 0.00 48 1016.9